This demonstration page uses our WeatherBlox Daily Observations layout. Learn more.

Left ArrowRight Arrow

Hourly Observations for April 28, 2016

Temp ( °F °C ) Dew Point ( °F °C ) Humidity (%) Winds ( mph kmh ) Pressure ( in mb ) Visibility ( mi km ) Precip ( " mm )
12:51 am 00:51 Clear 67 19.4 21 -6.1 17 17 Calm 29.58 1002 10 16 0.00 0.00
1:51 am 01:51 Clear 64 17.8 22 -5.6 20 20 SSE 7 11 29.56 1001 10 16 0.00 0.00
2:51 am 02:51 Clear 61 16.1 21 -6.1 21 21 NE 6 9 29.57 1002 10 16 0.00 0.00
3:51 am 03:51 Clear 60 15.6 23 -5 24 24 N 6 9 29.57 1002 10 16 0.00 0.00
4:51 am 04:51 Clear 56 13.3 23 -5 28 28 N 6 9 29.59 1002 10 16 0.00 0.00
5:51 am 05:51 Sunny 56 13.3 22 -5.6 27 27 E 7 11 29.60 1002 10 16 0.00 0.00
6:51 am 06:51 Sunny 63 17.2 21 -6.1 20 20 E 7 11 29.61 1003 10 16 0.00 0.00
7:51 am 07:51 Sunny 68 20 20 -6.7 16 16 E 7 11 29.61 1003 10 16 0.00 0.00
8:51 am 08:51 Sunny 70 21.1 19 -7.2 14 14 VRB 6 9 29.61 1003 10 16 0.00 0.00
9:51 am 09:51 Sunny 73 22.8 17 -8.3 12 12 SSW 16 26 29.60 1002 10 16 0.00 0.00
10:51 am 10:51 Sunny 75 23.9 13 -10.6 9 9 VRB 3 6 29.58 1002 10 16 0.00 0.00
11:51 am 11:51 Sunny 77 25 9 -12.8 7 7 WNW 6 9 29.54 1001 10 16 0.00 0.00
12:51 pm 12:51 Sunny 82 27.8 9 -12.8 6 6 SSW 29 46 29.52 1000 10 16 0.00 0.00
1:51 pm 13:51 Sunny 82 27.8 11 -11.7 7 7 SW 15 24 29.50 999 10 16 0.00 0.00
2:26 pm 14:26 Sunny 80 26.7 11 -11.7 7 7 W 15 24 29.41 996 10 16 0.00 0.00
2:51 pm 14:51 Sunny 80 26.7 14 -10 8 8 WSW 12 19 29.49 999 10 16 0.00 0.00
3:51 pm 15:51 Sunny 76 24.4 26 -3.3 16 16 WNW 23 37 29.49 999 10 16 0.00 0.00
4:51 pm 16:51 Mostly Cloudy 72 22.2 29 -1.7 20 20 W 20 31 29.54 1001 10 16 0.00 0.00
5:51 pm 17:51 Mostly Cloudy 69 20.6 31 -0.6 24 24 WNW 22 35 29.57 1001 10 16 0.00 0.00
6:51 pm 18:51 Sunny 63 17.2 34 1.1 34 34 W 20 31 29.61 1003 10 16 0.00 0.00
7:51 pm 19:51 Clear 61 16.1 29 -1.7 30 30 WNW 22 35 29.63 1003 10 16 0.00 0.00
8:51 pm 20:51 Mostly Clear 61 16.1 27 -2.8 27 27 W 9 15 29.66 1004 10 16 0.00 0.00
9:51 pm 21:51 Partly Cloudy 60 15.6 24 -4.4 25 25 WNW 13 20 29.66 1005 10 16 0.00 0.00
10:51 pm 22:51 Clear 57 13.9 22 -5.6 26 26 NW 9 15 29.70 1006 10 16 0.00 0.00
11:51 pm 23:51 Clear 54 12.2 21 -6.1 28 28 NW 10 17 29.72 1006 10 16 0.00 0.00

Powered by AerisWeather